TimeCST,TemperatureF,Dew PointF,Humidity,Sea Level PressureIn,VisibilityMPH,Wind Direction,Wind SpeedMPH,Gust SpeedMPH,PrecipitationIn,Events,Conditions,WindDirDegrees,DateUTC
12:15 AM,12.2,8.6,85,30.34,10.0,Calm,Calm,-,N/A,,Clear,0,2012-11-24 06:15:00
12:35 AM,12.2,6.8,79,30.34,10.0,ENE,4.6,-,N/A,,Clear,60,2012-11-24 06:35:00
12:55 AM,10.4,6.8,85,30.33,10.0,ENE,3.5,-,N/A,,Clear,70,2012-11-24 06:55:00
1:15 AM,10.4,6.8,85,30.31,10.0,Calm,Calm,-,N/A,,Clear,0,2012-11-24 07:15:00
1:35 AM,10.4,6.8,85,30.31,10.0,East,4.6,-,N/A,,Clear,100,2012-11-24 07:35:00
1:55 AM,10.4,6.8,85,30.31,10.0,ESE,4.6,-,N/A,,Scattered Clouds,120,2012-11-24 07:55:00
2:15 AM,10.4,6.8,85,30.30,10.0,Calm,Calm,-,N/A,,Mostly Cloudy,0,2012-11-24 08:15:00
2:35 AM,10.4,6.8,85,30.30,10.0,Calm,Calm,-,N/A,,Mostly Cloudy,0,2012-11-24 08:35:00
2:55 AM,10.4,6.8,85,30.29,10.0,Calm,Calm,-,N/A,,Mostly Cloudy,0,2012-11-24 08:55:00
3:15 AM,10.4,6.8,85,30.29,10.0,SSE,3.5,-,N/A,,Overcast,160,2012-11-24 09:15:00
3:55 AM,14.0,10.4,86,30.27,10.0,SE,3.5,-,N/A,,Mostly Cloudy,140,2012-11-24 09:55:00
4:15 AM,15.8,12.2,86,30.26,10.0,SE,4.6,-,N/A,,Scattered Clouds,130,2012-11-24 10:15:00
4:35 AM,15.8,12.2,86,30.26,10.0,SSE,4.6,-,N/A,,Mostly Cloudy,150,2012-11-24 10:35:00
4:55 AM,17.6,12.2,79,30.26,10.0,SE,5.8,-,N/A,,Mostly Cloudy,140,2012-11-24 10:55:00
5:15 AM,17.6,14.0,86,30.24,10.0,SE,8.1,-,N/A,,Mostly Cloudy,130,2012-11-24 11:15:00
5:35 AM,17.6,12.2,79,30.23,10.0,SE,6.9,-,N/A,,Mostly Cloudy,130,2012-11-24 11:35:00
5:55 AM,17.6,14.0,86,30.23,10.0,SE,6.9,-,N/A,,Mostly Cloudy,130,2012-11-24 11:55:00
6:15 AM,17.6,14.0,86,30.23,10.0,SSE,6.9,-,N/A,,Overcast,150,2012-11-24 12:15:00
6:35 AM,17.6,14.0,86,30.23,10.0,SSE,9.2,-,N/A,,Mostly Cloudy,150,2012-11-24 12:35:00
6:55 AM,19.4,14.0,80,30.22,10.0,SE,8.1,-,N/A,,Mostly Cloudy,140,2012-11-24 12:55:00
7:15 AM,19.4,14.0,80,30.21,10.0,SSE,10.4,-,N/A,,Mostly Cloudy,150,2012-11-24 13:15:00
7:35 AM,19.4,14.0,80,30.19,10.0,SE,12.7,-,N/A,,Mostly Cloudy,140,2012-11-24 13:35:00
7:55 AM,19.4,14.0,80,30.18,10.0,SE,15.0,-,N/A,,Mostly Cloudy,140,2012-11-24 13:55:00
8:15 AM,19.4,14.0,80,30.16,10.0,SSE,15.0,-,N/A,,Clear,150,2012-11-24 14:15:00
8:35 AM,21.2,14.0,74,30.17,10.0,SSE,12.7,-,N/A,,Clear,150,2012-11-24 14:35:00
8:55 AM,21.2,14.0,74,30.16,10.0,SE,15.0,-,N/A,,Partly Cloudy,140,2012-11-24 14:55:00
9:15 AM,23.0,15.8,74,30.16,10.0,SSE,13.8,-,N/A,,Mostly Cloudy,150,2012-11-24 15:15:00
9:35 AM,23.0,15.8,74,30.14,10.0,SSE,17.3,-,N/A,,Overcast,150,2012-11-24 15:35:00
9:55 AM,24.8,14.0,64,30.13,10.0,SSE,17.3,-,N/A,,Overcast,160,2012-11-24 15:55:00
10:15 AM,24.8,15.8,69,30.12,10.0,SSE,18.4,-,N/A,,Mostly Cloudy,150,2012-11-24 16:15:00
10:35 AM,26.6,15.8,64,30.11,10.0,SSE,16.1,-,N/A,,Overcast,150,2012-11-24 16:35:00
10:55 AM,26.6,15.8,64,30.09,10.0,SSE,19.6,-,N/A,,Overcast,150,2012-11-24 16:55:00
11:15 AM,28.4,15.8,59,30.07,10.0,SSE,18.4,-,N/A,,Mostly Cloudy,150,2012-11-24 17:15:00
11:35 AM,30.2,15.8,55,30.05,10.0,SSE,15.0,-,N/A,,Scattered Clouds,150,2012-11-24 17:35:00
11:55 AM,32.0,15.8,51,30.02,10.0,SSE,18.4,25.3,N/A,,Clear,150,2012-11-24 17:55:00
12:15 PM,33.8,15.8,48,29.99,10.0,SSE,19.6,-,N/A,,Clear,150,2012-11-24 18:15:00
12:35 PM,33.8,15.8,48,29.96,10.0,SSE,21.9,-,N/A,,Clear,150,2012-11-24 18:35:00
12:55 PM,35.6,15.8,44,29.94,10.0,SSE,18.4,28.8,N/A,,Clear,150,2012-11-24 18:55:00
1:15 PM,37.4,15.8,41,29.92,10.0,SSE,24.2,-,N/A,,Clear,150,2012-11-24 19:15:00
1:35 PM,37.4,15.8,41,29.91,10.0,SSE,20.7,27.6,N/A,,Clear,160,2012-11-24 19:35:00
1:55 PM,39.2,17.6,42,29.90,10.0,South,20.7,27.6,N/A,,Clear,170,2012-11-24 19:55:00
2:15 PM,39.2,15.8,39,29.90,10.0,SSW,19.6,31.1,N/A,,Clear,200,2012-11-24 20:15:00
2:35 PM,37.4,15.8,41,29.88,10.0,South,20.7,29.9,N/A,,Clear,190,2012-11-24 20:35:00
2:55 PM,39.2,15.8,39,29.87,10.0,South,21.9,32.2,N/A,,Mostly Cloudy,190,2012-11-24 20:55:00
3:15 PM,37.4,15.8,41,29.87,10.0,South,18.4,25.3,N/A,,Scattered Clouds,180,2012-11-24 21:15:00
3:35 PM,37.4,15.8,41,29.87,10.0,SSW,16.1,24.2,N/A,,Clear,210,2012-11-24 21:35:00
3:55 PM,37.4,15.8,41,29.86,10.0,South,18.4,-,N/A,,Clear,190,2012-11-24 21:55:00
4:15 PM,35.6,15.8,44,29.85,-9999.0,SSW,16.1,23.0,N/A,,Clear,200,2012-11-24 22:15:00
4:35 PM,35.6,15.8,44,29.85,10.0,South,12.7,-,N/A,,Clear,190,2012-11-24 22:35:00
4:55 PM,35.6,15.8,44,29.83,10.0,South,13.8,-,N/A,,Partly Cloudy,180,2012-11-24 22:55:00
5:15 PM,33.8,15.8,48,29.84,10.0,South,9.2,-,N/A,,Mostly Cloudy,170,2012-11-24 23:15:00
5:35 PM,33.8,17.6,52,29.84,10.0,South,9.2,-,N/A,,Mostly Cloudy,190,2012-11-24 23:35:00
5:55 PM,33.8,17.6,52,29.83,10.0,South,9.2,15.0,N/A,,Mostly Cloudy,190,2012-11-24 23:55:00
6:15 PM,33.8,17.6,52,29.83,10.0,South,9.2,-,N/A,,Partly Cloudy,190,2012-11-25 00:15:00
6:35 PM,33.8,17.6,52,29.83,10.0,SSW,8.1,-,N/A,,Mostly Cloudy,200,2012-11-25 00:35:00
6:55 PM,33.8,17.6,52,29.84,10.0,SSW,8.1,-,N/A,,Partly Cloudy,200,2012-11-25 00:55:00
7:15 PM,33.8,17.6,52,29.81,10.0,South,10.4,-,N/A,,Mostly Cloudy,190,2012-11-25 01:15:00
7:35 PM,33.8,17.6,52,29.81,10.0,SSW,9.2,-,N/A,,Mostly Cloudy,200,2012-11-25 01:35:00
7:55 PM,33.8,17.6,52,29.82,10.0,SSW,8.1,-,N/A,,Mostly Cloudy,210,2012-11-25 01:55:00
8:15 PM,33.8,17.6,52,29.82,10.0,SSW,8.1,-,N/A,,Mostly Cloudy,210,2012-11-25 02:15:00
8:35 PM,33.8,19.4,56,29.83,10.0,SW,6.9,-,N/A,,Mostly Cloudy,220,2012-11-25 02:35:00
8:55 PM,33.8,19.4,56,29.82,10.0,SSW,6.9,-,N/A,,Partly Cloudy,210,2012-11-25 02:55:00
9:15 PM,33.8,19.4,56,29.83,10.0,WNW,4.6,-,N/A,,Clear,300,2012-11-25 03:15:00
9:35 PM,33.8,19.4,56,29.82,10.0,SW,6.9,-,N/A,,Partly Cloudy,230,2012-11-25 03:35:00
9:55 PM,32.0,19.4,60,29.81,10.0,SW,4.6,-,N/A,,Scattered Clouds,230,2012-11-25 03:55:00
10:15 PM,32.0,19.4,60,29.82,10.0,West,4.6,-,N/A,,Partly Cloudy,260,2012-11-25 04:15:00
10:35 PM,32.0,19.4,60,29.82,10.0,SW,4.6,-,N/A,,Clear,230,2012-11-25 04:35:00
10:55 PM,32.0,19.4,60,29.82,10.0,WSW,4.6,-,N/A,,Partly Cloudy,250,2012-11-25 04:55:00
11:15 PM,32.0,21.2,64,29.83,10.0,WSW,4.6,-,N/A,,Scattered Clouds,240,2012-11-25 05:15:00
11:35 PM,33.8,21.2,60,29.84,10.0,WNW,6.9,-,N/A,,Mostly Cloudy,290,2012-11-25 05:35:00
11:55 PM,33.8,21.2,60,29.84,10.0,West,8.1,-,N/A,,Scattered Clouds,280,2012-11-25 05:55:00